"Pseudo-MPEC" for ABC0067

Created 2025 May 14 16:31:02 UT using Find_Orb

Click here for an explanation of pseudo-MPECs

 
 Astrometry: 
     ABC0067*KB2025 04 30.88462 09 31 36.14 +34 36 37.8    ~51EV 19.6 GXNEOCP122
     ABC0067 KB2025 04 30.88944 09 31 36.75 +34 36 42.1    ~51EV 19.6 GXNEOCP122
     ABC0067 KB2025 04 30.89400 09 31 37.41 +34 36 46.6    ~51EV 19.8 GXNEOCP122

Station data:
(122) Pises Observatory  (N44.039539 E3.503500)  France. 0.40-m f/4.7
   reflector.

Orbital elements:  ABC0067
   Perihelion 2024 Dec 19.76472 +/- 67.2 TT = 18:21:12 (JD 2460664.26472)
Epoch 2025 May  1.0 TT = JDT 2460796.5   Earth MOID: 0.1162      AutoNEOCP
M 173.03085769 +/- 90               (J2000 ecliptic)
n   1.30850755 +/- 0.888            Peri.  198.62245 +/- 80
a   0.82785045 +/- 0.375            Node   182.11564 +/- 25
e   0.4046138 +/- 0.221             Incl.   33.45570 +/- 41
P   0.753/275.117d         H 18.88  G  0.15   U 12.7  SR
q 0.49289068 +/- 0.449    Q 1.16281023 +/- 19.1
From 3 observations 2025 Apr. 30 (13.5 min); mean residual 0".19
Residuals in arcseconds: 
250430 122  .17+  .07+    250430 122  .35-  .15-    250430 122  .18+  .08+    

Ephemerides (geocentric):
Date (UTC) HH   RA             Dec           delta  r     elong  mag " sig PA
---- --------  ------------   ------------  ------ ------ -----  --- --------
2025 05 14 17  10 02 27.111   +37 04 33.47  .64688 1.1597  85.8 20.4 226' 107
2025 05 14 18  10 02 32.474   +37 04 49.50  .64723 1.1597  85.8 20.4 227' 107
2025 05 14 19  10 02 37.837   +37 05 05.48  .64758 1.1596  85.8 20.4 229' 107
2025 05 14 20  10 02 43.199   +37 05 21.40  .64793 1.1596  85.8 20.4 231' 107
2025 05 14 21  10 02 48.559   +37 05 37.28  .64828 1.1596  85.7 20.4 233' 106
2025 05 14 22  10 02 53.919   +37 05 53.10  .64864 1.1595  85.7 20.4 235' 106
2025 05 14 23  10 02 59.278   +37 06 08.88  .64899 1.1595  85.7 20.4 237' 106
2025 05 15 00  10 03 04.635   +37 06 24.60  .64934 1.1595  85.7 20.4 239' 106
2025 05 15 01  10 03 09.992   +37 06 40.27  .64969 1.1594  85.7 20.4 241' 106
2025 05 15 02  10 03 15.347   +37 06 55.90  .65004 1.1594  85.6 20.4 243' 106
2025 05 15 03  10 03 20.701   +37 07 11.47  .65039 1.1594  85.6 20.4 245' 106
2025 05 15 04  10 03 26.055   +37 07 26.99  .65074 1.1594  85.6 20.4 247' 106
2025 05 15 05  10 03 31.407   +37 07 42.46  .65109 1.1593  85.6 20.4 249' 105
2025 05 15 06  10 03 36.759   +37 07 57.88  .65145 1.1593  85.5 20.4 251' 105
2025 05 15 07  10 03 42.109   +37 08 13.25  .65180 1.1593  85.5 20.4 253' 105
2025 05 15 08  10 03 47.458   +37 08 28.58  .65215 1.1592  85.5 20.4 255' 105
2025 05 15 09  10 03 52.807   +37 08 43.85  .65250 1.1592  85.5 20.4 257' 105
2025 05 15 10  10 03 58.154   +37 08 59.07  .65285 1.1592  85.5 20.4 259' 105
2025 05 15 11  10 04 03.500   +37 09 14.24  .65320 1.1591  85.4 20.4 261' 105
2025 05 15 12  10 04 08.846   +37 09 29.36  .65355 1.1591  85.4 20.4 263' 105
2025 05 15 13  10 04 14.190   +37 09 44.44  .65390 1.1591  85.4 20.4 265' 104
2025 05 15 14  10 04 19.533   +37 09 59.46  .65424 1.1590  85.4 20.4 268' 104
2025 05 15 15  10 04 24.876   +37 10 14.43  .65459 1.1590  85.4 20.4 270' 104
2025 05 15 16  10 04 30.217   +37 10 29.36  .65494 1.1589  85.3 20.4 272' 104
2025 05 15 17  10 04 35.557   +37 10 44.23  .65529 1.1589  85.3 20.4 274' 104
2025 05 15 18  10 04 40.897   +37 10 59.06  .65564 1.1589  85.3 20.4 276' 104
2025 05 15 19  10 04 46.235   +37 11 13.84  .65599 1.1588  85.3 20.4 279' 104
2025 05 15 20  10 04 51.572   +37 11 28.57  .65634 1.1588  85.2 20.4 281' 104
2025 05 15 21  10 04 56.909   +37 11 43.25  .65668 1.1588  85.2 20.4 283' 103
2025 05 15 22  10 05 02.244   +37 11 57.88  .65703 1.1587  85.2 20.5 286' 103
2025 05 15 23  10 05 07.579   +37 12 12.46  .65738 1.1587  85.2 20.5 288' 103
2025 05 16 00  10 05 12.912   +37 12 27.00  .65773 1.1587  85.2 20.5 290' 103
2025 05 16 01  10 05 18.244   +37 12 41.48  .65808 1.1586  85.1 20.5 293' 103
2025 05 16 02  10 05 23.576   +37 12 55.92  .65842 1.1586  85.1 20.5 295' 103
2025 05 16 03  10 05 28.906   +37 13 10.31  .65877 1.1586  85.1 20.5 298' 103
2025 05 16 04  10 05 34.236   +37 13 24.65  .65912 1.1585  85.1 20.5 300' 102
2025 05 16 05  10 05 39.564   +37 13 38.94  .65946 1.1585  85.1 20.5 302' 102
2025 05 16 06  10 05 44.892   +37 13 53.19  .65981 1.1585  85.0 20.5 305' 102
2025 05 16 07  10 05 50.219   +37 14 07.38  .66016 1.1584  85.0 20.5 307' 102
2025 05 16 08  10 05 55.544   +37 14 21.53  .66050 1.1584  85.0 20.5 310' 102
2025 05 16 09  10 06 00.869   +37 14 35.63  .66085 1.1583  85.0 20.5 313' 102
2025 05 16 10  10 06 06.193   +37 14 49.69  .66120 1.1583  84.9 20.5 315' 101
2025 05 16 11  10 06 11.516   +37 15 03.69  .66154 1.1583  84.9 20.5 318' 101
2025 05 16 12  10 06 16.837   +37 15 17.65  .66189 1.1582  84.9 20.5 320' 101
2025 05 16 13  10 06 22.158   +37 15 31.56  .66223 1.1582  84.9 20.5 323' 101
2025 05 16 14  10 06 27.478   +37 15 45.43  .66258 1.1582  84.9 20.5 325' 101
2025 05 16 15  10 06 32.797   +37 15 59.24  .66292 1.1581  84.8 20.5 328' 101
2025 05 16 16  10 06 38.115   +37 16 13.01  .66327 1.1581  84.8 20.5 331' 100